Regional Weather Roundup
Issued by NWS

Home | Current Version | Previous Version | Text Only | Print | Product List | Glossary Off
Versions: 1 2 3 4 5 6 7 8 9 10 11 12 13 14 15 16 17 18 19 20 21 22 23 24 25 26 27 28 29 30 31 32 33 34 35 36 37 38 39 40 41 42 43 44 45 46 47 48 49 50

000
ASUS45 KBOU 252207
RWRCO

WEATHER ROUNDUP FOR COLORADO
NATIONAL WEATHER SERVICE DENVER/BOULDER CO
300 PM MST SUN JAN 25 2015

NOTE: "FAIR" INDICATES FEW OR NO CLOUDS BELOW 12000 FEET WITH NO
SIGNIFICANT WEATHER AND/OR OBSTRUCTIONS TO VISIBILITY.

COZ001>005-013-030-031-252300-
...NORTHWEST COLORADO...

CITY           SKY/WX    TMP DP  RH WIND       PRES   REMARKS
CRAIG          PTSUNNY   42  28  57 E7        30.34S
HAYDEN         PTSUNNY   37  25  60 SE6       30.34F
MEEKER         MOSUNNY   38  24  57 CALM      30.34R
MOUNT WERNER   NOT AVBL
STEAMBOAT SPGS PTSUNNY   40  27  59 CALM      30.34F
WALDEN         PTSUNNY   36  27  69 S10       30.31R
$$

COZ006>008-011-252300-
...WEST CENTRAL VALLEYS...

CITY           SKY/WX    TMP DP  RH WIND       PRES   REMARKS
GRAND JUNCTION PTSUNNY   48  20  32 NW6       30.32F
MONTROSE       MOSUNNY   47  20  34 NW8       30.34S
EAGLE          MOSUNNY   46  27  46 CALM      30.33F
RIFLE          MOSUNNY   49  21  33 CALM      30.32F
DELTA          MOSUNNY   48  18  30 CALM      30.34S
NUCLA          MOSUNNY   54  23  30 NW6       30.34S
$$

COZ017>023-064>068-252300-
...SOUTHWEST COLORADO...

CITY           SKY/WX    TMP DP  RH WIND       PRES   REMARKS
DURANGO        MOSUNNY   44  24  45 NE7       30.27S
CORTEZ         SUNNY     52  24  33 S13       30.25F
PAGOSA SPRINGS MOSUNNY   49  17  28 CALM      30.29R
TELLURIDE      NOT AVBL
WOLF CREEK PAS NOT AVBL
$$

COZ009-010-012-014-032>034-037-058>063-252300-
...CENTRAL COLORADO...

CITY           SKY/WX    TMP DP  RH WIND       PRES   REMARKS
ASPEN          MOSUNNY   46  25  43 NE7       30.33R
BUENA VISTA    MOSUNNY   50  19  29 NW17      30.24R
COPPER MTN     MOSUNNY   30  23  74 W15       30.41R WCI  19
BERTHOUD PASS  NOT AVBL
COTTONWOOD PAS MOSUNNY   46  14  27 W9G17     30.31R
GUNNISON       MOSUNNY   21   9  58 CALM      30.40S
KREMMLING      MOSUNNY   41  27  56 E6        30.34R
LEADVILLE      PTSUNNY   38  19  46 N9G18     30.32R
MONARCH PASS   MOSUNNY   27  19  74 SW24G31   30.48R WCI  12
SALIDA         MOSUNNY   51  20  29 SW15      30.31R
SUNLIGHT       MOSUNNY   34  27  75 W5        30.43S WCI  30
WILKERSON PASS MOSUNNY   34  14  44 NW8G24    30.35S WCI  27
$$

COZ069>075-252300-
...SAN LUIS VALLEY/SANGRE DE CRISTO MOUNTAINS...

CITY           SKY/WX    TMP DP  RH WIND       PRES   REMARKS
ALAMOSA        SUNNY     48  18  30 N5        30.27F
LA VETA PASS   NOT AVBL
SAGUACHE       MOSUNNY   36  25  64 E5        30.29S
$$

COZ035-036-038>040-252300-
...NORTHERN COLORADO FRONT RANGE...

CITY           SKY/WX    TMP DP  RH WIND       PRES   REMARKS
DENVER INTL AP PTSUNNY   60  24  25 NW8       30.10S
DMNS CITY PARK   N/A     60  22  22 W10       30.11R
AURORA         PTSUNNY   58  26  29 W14       30.12S
FRONT RANGE AP NOT AVBL
ERIE MUNI ARPT MOSUNNY   62  20  19 W12G18    30.09R
BOULDER MUN AP MOSUNNY   61  23  23 NW14G20   30.09R
CENTENNIAL     PTSUNNY   57  24  28 NW13      30.12S
BROOMFIELD     MOSUNNY   59  25  27 W20G28    30.12
FORT COLLINS   MOSUNNY   61  28  29 CALM      30.09S
LONGMONT       MOSUNNY   67  21  17 W9        30.09S
$$

COZ041-046-047-076>085-087-088-252300-
...PIKES PEAK/PALMER DIVIDE AND SOUTHERN FOOTHILLS...

CITY           SKY/WX    TMP DP  RH WIND       PRES   REMARKS
COLO. SPRINGS  PTSUNNY   52  24  33 S8        30.17S
A. F. ACADEMY  SUNNY     51  26  38 S7        30.16S
ELLICOTT       SUNNY    N/A N/A N/A S3        30.15F
FALCON         SUNNY     49  27  41 S7        30.18S
FORT CARSON    SUNNY     52  29  40 S7        30.15S
LIMON          SUNNY     54  26  34 N10       30.13S
MONUMENT HILL  SUNNY     46  30  53 NW5       30.16S
TRINIDAD       SUNNY     53  27  36 SE8       30.18R
$$

COZ042>045-048>051-090-091-252300-
...NORTHEAST COLORADO...

CITY           SKY/WX    TMP DP  RH WIND       PRES   REMARKS
GREELEY ARPT   MOSUNNY   57  30  35 S5        30.07S
AKRON          MOSUNNY   50  32  50 W9        30.09F
BURLINGTON     PTSUNNY   53  31  42 N13G20    30.10R
WRAY           PTSUNNY   56  32  40 W10       30.07S
STERLING       MOSUNNY   55  37  50 N12       30.06S
HOLYOKE        SUNNY     55  32  41 NW16      30.07R
FORT MORGAN    MOSUNNY   54  29  38 W6        30.10R
$$

COZ086-089-092>099-252300-
...SOUTHEAST COLORADO...

CITY           SKY/WX    TMP DP  RH WIND       PRES   REMARKS
PUEBLO         SUNNY     58  28  32 E5        30.14R
LA JUNTA       SUNNY     59  27  29 CALM      30.14S
LAMAR          SUNNY     59  30  33 W8        30.12S
SPRINGFIELD      N/A     57  27  31 NW15      30.14S
$$


USA.gov is the U.S. government's official web portal to all federal, state and local government web resources and services.